Lid_Strength_Index
2 2 2 2 2 2 2 2 2 2 2 2 2 2 2 2 3 1 2 1 0 -2 -1 0 1 1 1 3 2 3 8 8 7 7 6 4 4 3 3 4 4 3 3 3 1
3 3 3 2 3 3 3 3 3 2 2 2 2 2 2 2 2 3 -0 -3 -2 -2 1 2 3 2 3 4 3 5 7 7 5 5 5 4 4 4 4 4 5 4 3 2 2
3 3 3 3 3 2 3 3 3 3 3 2 2 2 2 2 3 3 -2 -2 -1 -1 0 1 1 2 4 3 4 4 7 5 5 4 4 4 4 3 4 5 4 5 4 3 2
3 3 3 2 2 2 2 2 3 3 3 3 3 2 2 1 7 1 -1 -2 -1 -1 0 1 2 4 5 5 3 5 4 4 4 3 4 4 3 4 4 4 3 3 3 3 3
3 3 3 2 2 3 3 3 3 3 3 3 3 2 2 4 4 -1 -2 -1 -1 0 1 2 3 3 5 4 4 5 4 4 3 3 4 3 4 4 4 3 2 2 3 3 3
3 3 3 3 3 3 3 3 3 3 3 3 2 3 3 7 2 -0 -0 -0 0 1 1 2 3 2 4 4 5 4 4 4 4 4 4 4 4 4 4 2 3 3 3 3 3
3 3 3 3 3 3 3 4 4 4 3 2 2 2 4 5 2 0 -0 0 -0 1 2 1 1 3 3 4 3 4 5 5 4 4 4 4 5 5 3 3 3 3 3 3 3
3 3 3 3 3 4 4 4 4 4 3 1 2 2 5 2 2 3 2 1 1 2 3 2 2 3 3 3 4 5 5 7 5 4 4 4 7 5 3 3 3 3 3 3 3
3 3 3 4 4 4 5 5 4 3 2 2 1 2 5 4 4 3 2 4 3 3 2 2 3 5 4 5 6 6 8 7 6 4 5 5 6 4 3 3 4 3 3 3 3
4 4 4 4 4 5 5 5 3 4 2 2 2 5 4 6 4 4 3 3 4 4 4 4 4 6 6 6 9 8 8 7 7 5 5 6 6 5 4 4 4 3 3 3 3
4 4 4 4 5 5 5 3 5 5 4 6 6 6 6 4 4 4 4 4 4 5 7 5 6 7 6 5 6 6 7 7 6 5 6 6 6 5 4 4 4 3 3 3 3
4 4 4 5 5 6 5 5 6 6 7 6 6 6 5 5 6 5 4 6 6 8 6 7 8 5 5 5 6 6 7 7 6 5 6 6 6 5 4 4 4 4 3 3 3
4 4 5 5 6 4 5 6 4 4 7 6 6 6 6 5 6 6 5 5 6 7 6 7 6 5 6 6 7 7 7 7 7 6 5 6 7 6 5 4 4 3 3 3 3
5 5 5 7 6 3 5 4 4 5 8 8 7 6 5 5 7 5 4 5 6 7 7 7 5 6 6 7 6 8 6 6 7 7 9 6 10 7 6 5 4 4 3 3 3
5 5 6 7 4 4 4 3 4 5 11 8 7 4 5 7 6 6 4 5 7 7 7 7 7 7 7 7 5 7 5 6 7 7 8 8 9 8 6 6 5 4 4 3 3
5 5 6 4 3 3 3 4 5 9 12 9 8 8 7 7 7 6 6 4 5 6 6 7 5 5 6 5 5 5 6 6 7 7 11 8 9 9 7 6 5 4 4 3 3
5 6 6 4 4 3 4 5 9 11 8 9 9 8 8 9 8 8 8 7 8 9 8 6 6 5 5 6 5 6 7 11 11 11 12 8 9 8 6 5 5 5 4 3 3
6 7 5 4 3 3 4 7 10 9 9 8 8 8 9 9 8 8 8 8 6 7 8 9 10 6 5 6 7 7 7 10 13 13 11 8 10 8 5 4 4 4 4 3 3
7 2 4 2 2 3 6 9 8 9 8 9 8 9 9 9 9 8 8 8 7 6 8 9 9 5 5 5 5 7 8 6 9 9 11 10 8 6 5 5 4 4 4 4 4
5 4 4 3 2 4 7 9 8 7 8 8 10 9 10 9 9 8 9 7 8 5 4 6 9 6 6 5 5 6 5 9 9 13 13 11 10 9 7 6 5 5 4 5 4
4 5 3 3 3 6 9 8 8 7 7 8 9 9 9 9 8 8 8 7 6 5 4 6 7 8 6 7 8 7 8 9 9 10 14 13 10 6 6 7 6 5 5 5 5
4 7 2 2 7 6 8 8 12 8 7 7 8 8 8 8 8 8 8 6 4 5 7 5 7 10 8 6 5 6 10 11 11 16 14 13 12 7 7 5 6 6 6 5 5
5 5 2 3 8 7 7 8 8 8 8 7 8 7 6 7 8 7 6 5 4 5 6 6 8 11 9 7 7 8 8 10 8 8 12 15 15 6 7 8 6 7 6 6 6
5 6 4 4 5 7 7 8 8 7 7 7 7 6 6 7 6 7 7 5 4 5 3 4 7 9 11 10 8 9 8 7 7 10 12 12 11 9 10 9 7 7 6 6 5
3 4 5 7 6 7 7 7 8 9 6 6 7 7 7 8 7 7 6 6 5 4 5 5 9 8 8 7 7 7 8 8 8 8 14 11 13 10 10 9 7 6 6 6 6
5 4 3 6 5 7 9 8 8 8 8 8 7 6 6 7 7 8 6 6 7 5 6 5 10 8 9 7 7 8 7 7 7 7 8 8 9 7 7 6 7 7 6 6 6
1 2 5 6 5 7 7 7 7 7 7 7 7 6 6 6 5 4 4 4 4 6 6 7 8 10 12 8 8 10 8 8 7 7 7 10 9 7 7 7 8 7 7 7 6